Location: *
(45.5667°S, 177.5167°W)
Time: 16:39:06
(UTC+00:00)

Cosmos 1833 Rocket - Pass Details

Date: 29 May 2022
Orbit: 832 x 839 km, 71.0° (Epoch: 29 June)

Event Time Altitude Azimuth Distance (km) Brightness Sun altitude
Rises 04:52:02 0° 338° (NNW) 3,388 6.6 -6.2°
Reaches altitude 10° 04:54:28 10° 338° (NNW) 2,461 5.9 -6.5°
Maximum altitude 05:00:08 86° 64° (ENE) 858 2.8 -7.4°
Drops below altitude 10° 05:05:52 10° 153° (SSE) 2,490 4.7 -8.4°
Enters shadow 05:07:51 - 153° (SSE) 3,242 5.3 -8.7°
